Regional Weather Roundup
Issued by NWS

Home | Current Version | Previous Version | Text Only | Print | Product List | Glossary On
Versions: 1 2 3 4 5 6 7 8 9 10 11 12 13 14 15 16 17 18 19 20 21 22 23 24 25 26 27 28 29 30 31 32 33 34 35 36 37 38 39 40 41 42 43 44 45 46 47 48 49 50
000
ASUS43 KDTX 241301
RWRMI
MICHIGAN HOURLY REGIONAL WEATHER ROUNDUP
NATIONAL WEATHER SERVICE DETROIT/PONTIAC MI
900 AM EDT THU JUL 24 2014

NOTE: "FAIR" INDICATES FEW OR NO CLOUDS BELOW 12,000 FEET WITH NO
SIGNIFICANT WEATHER AND/OR OBSTRUCTION TO VISIBILITY.

MIZ047>049-052>055-059>063-066>070-074>076-081>083-241400-
SOUTHEAST LOWER MICHIGAN

CITY           SKY/WX    TMP DP  RH WIND       PRES   REMARKS
ADRIAN         SUNNY     64  53  67 NE9       30.14R
ALMA           SUNNY     59  51  74 N3        30.17R
ANN ARBOR      SUNNY     65  53  65 N6        30.13R
BAD AXE        CLOUDY    62  57  83 N7        30.15R
CARO           SUNNY     64  59  85 N6        30.14S
DETROIT CITY   SUNNY     67  56  67 NE7       30.12R
DETROIT        MOSUNNY   65  55  70 N8        30.13R
FLINT          SUNNY     64  54  69 E5        30.15R
GROSSE ILE     SUNNY     66  55  68 N10       30.11R
HILLSDALE      MOSUNNY   62  56  81 N5        30.14S
HOWELL         SUNNY     59  54  84 NE7       30.15S

CITY           SKY/WX    TMP DP  RH WIND       PRES   REMARKS
JACKSON        SUNNY     62  54  74 NE8       30.15R
LAMBERTVILLE   SUNNY     63  54  72 N6        30.12S
LANSING        SUNNY     61  53  75 N5        30.16S
LAPEER         FAIR      61  53  76 CALM      30.15R
MASON          SUNNY     59  55  85 NE5       30.15S
MONROE         SUNNY     63  55  77 N5        30.10S
MT. CLEMENS    MOSUNNY   64  56  74 N8        30.11R
PONTIAC        MOSUNNY   63  51  65 NE9       30.13S
PORT HOPE        N/A     64  57  78 CALM      30.13R
PORT HURON     SUNNY     63  59  88 N3        30.12S
TRI CITIES     SUNNY     61  51  70 N7        30.17R
TROY           SUNNY     63  55  75 NE6       30.13S
SAGINAW HB     SUNNY     61  55  82 NW5       30.14S
$$
MIZ043>046-050>051-056>058-064>065-071>073-077>080-241400-
SOUTHWEST LOWER MICHIGAN

CITY           SKY/WX    TMP DP  RH WIND       PRES   REMARKS
BATTLE CREEK   CLOUDY    63  53  70 NE6       30.17R
BENTON HARBOR  SUNNY     62  54  74 E5        30.17R
BIG RAPIDS     SUNNY     58  49  71 N3        30.18S
COLDWATER      CLOUDY    63  56  78 NE7       30.15S
FREMONT        FAIR      59  51  74 N3        30.18S
HOLLAND        MOSUNNY   63  52  67 E6        30.18R
GRAND RAPIDS   MOSUNNY   62  53  72 NE7       30.18R
IONIA          FAIR      59  51  75 NE3       30.16R
KALAMAZOO      CLOUDY    61  53  75 NE6       30.17R
LUDINGTON      SUNNY     57  54  91 CALM      30.20R
MARSHALL       CLOUDY    60  55  84 CALM      30.15R
MOUNT PLEASANT SUNNY     59  52  75 NW3       30.17R
MUSKEGON       SUNNY     63  49  60 NE8       30.19R
SOUTH HAVEN    PTSUNNY   61  55  80 E7        30.17S
$$
MIZ016>042-241400-
NORTHERN LOWER MICHIGAN

CITY           SKY/WX    TMP DP  RH WIND       PRES   REMARKS
ALPENA         SUNNY     59  50  72 NW5       30.15S
BEAVER ISLAND  SUNNY     61  55  79 W7        30.18S
BELLAIRE       SUNNY     56  51  84 CALM      30.18F
CADILLAC       SUNNY     58  53  82 N3        30.18S
CHARLEVOIX     SUNNY     62  54  74 W7        30.21S
FRANKFORT      SUNNY     59  53  79 CALM      30.19F
GAYLORD        SUNNY     59  48  67 VRB5      30.18S
GRAYLING       SUNNY     56  51  83 CALM      30.19R
HARBOR SPRINGS SUNNY     59  52  78 CALM      30.18R
MANISTEE       SUNNY     54  52  94 CALM      30.21R
OSCODA         SUNNY     62  50  64 N7        30.14S
PELLSTON       SUNNY     59  52  77 NW5       30.17F
ROGERS CITY    SUNNY     59  53  79 W7        30.16S
TRAVERSE CITY  SUNNY     62  53  72 CALM      30.17S
$$
MIZ007>008-015-241400-
EASTERN UPPER MICHIGAN

CITY           SKY/WX    TMP DP  RH WIND       PRES   REMARKS
KINROSS        SUNNY     52  48  87 W5        30.16R
MACKINAC ISLAN SUNNY     57  49  76 W8        30.17R
NEWBERRY       SUNNY     55  49  79 W13       30.16F
S. S. MARIE    SUNNY     57  50  77 W6        30.15R
MUNISING         N/A     59  47  64 S6        30.17R
$$
MIZ004>006-011>014-085-241400-
CENTRAL UPPER MICHIGAN

CITY           SKY/WX    TMP DP  RH WIND       PRES   REMARKS
MANISTIQUE     SUNNY     62  48  61 W7        30.17F
ESCANABA       SUNNY     59  48  67 W9        30.18S
MENOMINEE      SUNNY     59  52  77 NW5       30.20S
SAWYER-GWINN   SUNNY     57  48  72 W7        30.19S
$$
MIZ001>003-009>011-084-241400-
WESTERN UPPER MICHIGAN

CITY           SKY/WX    TMP DP  RH WIND       PRES   REMARKS
IRON MOUNTAIN  SUNNY     57  50  77 CALM      30.19F
HOUGHTON       SUNNY     62  49  62 W13       30.18S
COPPER HARBOR    N/A     63  50  62 N14G21    30.15S
IRONWOOD       SUNNY     57  55  94 CALM      30.17
$$

ABBREVIATIONS USED IN REMARKS
   TC - TEMPERATURE IN CELSIUS
  WCI - WIND CHILL INDEX
   HX - HEAT INDEX
  VSB - VISIBILITY



USA.gov is the U.S. government's official web portal to all federal, state and local government web resources and services.